Location: Chuathbaluk
(61.5726°N, 159.2454°W)
Time: 17:37:36
(UTC+00:00)

ITAMSAT 1 - Pass Details

Date: 23 January 2021
Orbit: 784 x 796 km, 98.9° (Epoch: 05 March)

Event Time Altitude Azimuth Distance (km) Brightness Sun altitude
Rises 17:09:30 0° 19° (NNE) 3,291 11.0 -14.5°
Reaches altitude 10° 17:11:54 10° 25° (NNE) 2,359 10.3 -14.2°
Maximum altitude 17:16:58 50° 101° (E) 1,002 8.7 -13.6°
Drops below altitude 10° 17:21:59 10° 177° (S) 2,347 10.4 -13.0°
Sets 17:24:23 0° 182° (S) 3,274 11.1 -12.8°
